Location: Leeds
(37.2390°N, 113.3580°W)
Time: 05:05:40
(UTC-07:00)

ISS - All Passes

Search period start: 28 January 2015 00:00
Search period end: 07 February 2015 00:00
Orbit: 402 x 410 km, 51.6° (Epoch: 28 January)

Date Brightness Start Highest point End Pass type
(mag) Time Alt. Az. Time Alt. Az. Time Alt. Az.
28 Jan - 04:15:05 10° NNW 04:17:20 17° NNE 04:19:38 10° ENE visible
28 Jan - 05:50:52 10° NW 05:54:09 66° SW 05:57:25 10° SE visible
28 Jan - 20:55:44 10° SE 20:56:27 11° SE 20:57:19 10° ESE night (unlit)
28 Jan - 22:29:21 10° WSW 22:32:36 64° NW 22:35:53 10° NE night (unlit)
29 Jan - 00:08:09 10° NW 00:09:41 12° NNW 00:11:09 10° N night (unlit)
29 Jan - 03:23:52 10° N 03:25:14 12° NNE 03:26:40 10° NE night (unlit)
29 Jan - 04:59:04 10° NW 05:02:20 60° NE 05:05:36 10° ESE visible
29 Jan - 06:37:12 10° WSW 06:38:31 12° SW 06:39:44 10° SSW visible
29 Jan - 21:37:34 10° SW 21:40:47 60° SE 21:44:02 10° ENE night (unlit)
29 Jan - 23:15:13 10° WNW 23:17:35 18° NNW 23:19:53 10° NNE night (unlit)
30 Jan - 04:07:24 10° NNW 04:10:25 32° NNE 04:13:26 10° E night (unlit)
30 Jan - 05:44:07 10° WNW 05:46:50 23° SW 05:49:30 10° S visible
30 Jan - 20:46:11 10° SSW 20:49:02 28° SE 20:51:55 10° ENE night (unlit)
30 Jan - 22:22:39 10° W 22:25:32 27° NNW 22:28:24 10° NNE night (unlit)
31 Jan - 03:15:52 10° NNW 03:18:23 20° NNE 03:20:56 10° ENE night (unlit)
31 Jan - 04:51:53 10° WNW 04:55:06 48° SW 04:58:16 10° SSE visible
31 Jan - 19:55:31 10° SSE 19:57:18 14° SE 19:59:11 10° E visible
31 Jan - 21:30:21 10° WSW 21:33:32 48° NW 21:36:45 10° NE night (unlit)
31 Jan - 23:09:43 10° NW 23:10:43 11° NNW 23:11:40 10° N night (unlit)
01 Feb - 02:24:29 10° N 02:26:15 14° NNE 02:28:05 10° NE night (unlit)
01 Feb - 03:59:56 10° NW 04:03:15 80° NE 04:06:32 10° SE night (unlit)
01 Feb - 20:38:22 10° SW 20:41:38 82° SE 20:44:55 10° NE visible
01 Feb - 22:16:28 10° WNW 22:18:31 15° NNW 22:20:32 10° NNE night (unlit)
02 Feb - 01:33:47 10° NNE 01:34:03 10° NNE 01:34:21 10° NNE night (unlit)
02 Feb - 03:08:09 10° NW 03:11:18 40° NE 03:14:26 10° ESE night (unlit)
02 Feb - 04:45:16 10° W 04:47:37 18° SW 04:49:53 10° S night (unlit)
02 Feb - 19:46:45 10° SSW 19:49:46 37° SE 19:52:51 10° ENE visible
02 Feb - 21:23:42 10° W 21:26:23 23° NNW 21:29:03 10° NNE night (unlit)
03 Feb - 02:16:31 10° NNW 02:19:14 24° NNE 02:22:00 10° E night (unlit)
03 Feb - 03:52:45 10° WNW 03:55:49 35° SW 03:58:52 10° SSE night (unlit)
03 Feb - 18:55:40 10° S 18:57:59 19° SE 19:00:22 10° E visible
03 Feb - 20:31:13 10° WSW 20:34:18 38° NW 20:37:24 10° NE visible
04 Feb - 01:25:00 10° NNW 01:27:05 16° NNE 01:29:13 10° ENE night (unlit)
04 Feb - 03:00:39 10° NW 03:03:57 77° SW 03:07:14 10° SE night (unlit)
04 Feb - 19:39:03 10° SW 19:42:18 75° NW 19:45:35 10° NE visible
04 Feb - 21:17:36 10° NW 21:19:18 13° NNW 21:20:58 10° N visible
05 Feb - 00:33:45 10° N 00:34:50 11° NNE 00:35:58 10° NE night (unlit)
05 Feb - 02:08:45 10° NW 02:11:59 51° NE 02:15:12 10° ESE night (unlit)
05 Feb - 03:46:25 10° W 03:48:12 14° SW 03:49:52 10° SSW night (unlit)
05 Feb - 18:47:12 10° SSW 18:50:22 50° SE 18:53:33 10° ENE visible
05 Feb - 20:24:36 10° WNW 20:27:04 19° NNW 20:29:31 10° NNE visible
06 Feb - 01:16:59 10° NNW 01:19:54 28° NNE 01:22:50 10° E night (unlit)
06 Feb - 02:53:31 10° WNW 02:56:22 27° SW 02:59:11 10° SSE night (unlit)
06 Feb - 17:55:48 10° S 17:58:29 24° SE 18:01:12 10° ENE daylight
06 Feb - 19:31:57 10° W 19:34:54 30° NNW 19:37:51 10° NNE visible
